TimeMST,TemperatureF,Dew PointF,Humidity,Sea Level PressureIn,VisibilityMPH,Wind Direction,Wind SpeedMPH,Gust SpeedMPH,PrecipitationIn,Events,Conditions,WindDirDegrees,DateUTC
12:53 AM,34.0,19.9,56,30.05,10.0,WSW,9.2,-,N/A,,Clear,250,2013-01-19 07:53:00
1:53 AM,33.1,19.9,59,30.05,10.0,West,10.4,-,N/A,,Clear,270,2013-01-19 08:53:00
2:53 AM,34.0,19.0,54,30.04,10.0,WSW,13.8,-,N/A,,Clear,250,2013-01-19 09:53:00
3:53 AM,30.9,19.9,64,30.05,10.0,West,12.7,-,N/A,,Clear,270,2013-01-19 10:53:00
4:53 AM,30.9,19.0,61,30.06,10.0,West,11.5,-,N/A,,Clear,270,2013-01-19 11:53:00
5:53 AM,32.0,19.0,59,30.09,10.0,West,13.8,-,N/A,,Clear,270,2013-01-19 12:53:00
6:53 AM,28.9,17.1,61,30.14,10.0,WSW,8.1,-,N/A,,Clear,250,2013-01-19 13:53:00
7:53 AM,35.1,19.0,52,30.15,10.0,WNW,11.5,-,N/A,,Clear,290,2013-01-19 14:53:00
8:53 AM,43.0,19.0,38,30.19,10.0,West,9.2,-,N/A,,Clear,270,2013-01-19 15:53:00
9:53 AM,48.9,17.1,28,30.20,10.0,West,11.5,-,N/A,,Clear,280,2013-01-19 16:53:00
10:53 AM,55.9,12.9,18,30.19,10.0,NW,8.1,-,N/A,,Clear,310,2013-01-19 17:53:00
11:53 AM,61.0,10.9,14,30.15,10.0,NNE,9.2,-,N/A,,Clear,30,2013-01-19 18:53:00
12:53 PM,63.0,7.0,11,30.14,10.0,NE,17.3,23.0,N/A,,Clear,50,2013-01-19 19:53:00
1:53 PM,64.0,7.0,11,30.14,10.0,NE,15.0,23.0,N/A,,Clear,50,2013-01-19 20:53:00
2:53 PM,64.0,5.0,10,30.14,10.0,NE,12.7,-,N/A,,Clear,50,2013-01-19 21:53:00
3:53 PM,63.0,6.1,11,30.16,10.0,ENE,8.1,-,N/A,,Clear,60,2013-01-19 22:53:00
4:53 PM,57.0,10.9,16,30.19,10.0,East,6.9,-,N/A,,Clear,90,2013-01-19 23:53:00
5:53 PM,50.0,10.9,21,30.22,10.0,East,5.8,-,N/A,,Clear,100,2013-01-20 00:53:00
6:53 PM,48.0,10.9,22,30.25,10.0,Calm,Calm,-,N/A,,Clear,0,2013-01-20 01:53:00
7:53 PM,44.1,10.9,26,30.26,10.0,ENE,3.5,-,N/A,,Clear,60,2013-01-20 02:53:00
8:53 PM,37.0,12.9,37,30.26,10.0,Calm,Calm,-,N/A,,Clear,0,2013-01-20 03:53:00
10:53 PM,33.1,15.1,48,30.25,10.0,Calm,Calm,-,N/A,,Clear,0,2013-01-20 05:53:00
11:53 PM,32.0,15.1,50,30.23,10.0,West,5.8,-,N/A,,Clear,270,2013-01-20 06:53:00